Flag for U.S.A. Weather past 2 weeks in Moscow, Idaho, U.S.A.

Now
41 °F

Clear.


Feels Like: 41 °F
Forecast: 40 / 62 °F
Wind: No wind

Location: Pullman / Moscow Regional Airport

Current Time: Apr 18, 2015 at 1:50:21 AM

Latest Report: Apr 18, 2015 at 12:53 AM


Visibility: 10 mi

Pressure: 30.16 "Hg

Humidity: 80%

Dew point: 35 °F

Location of MoscowLocation

Historic Weather in Moscow — Graph

°F

Moscow temperature yesterday

Maximum temperature yesterday: 66 °F (at 3:53 PM)
Minimum temperature yesterday: 33 °F (at 4:53 AM)
Average temperature yesterday: 51 °F

Past Weeks' High & Low Weather Summary

 TemperatureHumidityPressure
High66 °F (Apr 17, 3:53 PM)97% (Apr 6, 3:56 AM)30.47 "Hg (Apr 6, 3:56 AM)
Low28 °F (Apr 5, 6:53 AM)22% (Apr 7, 4:53 PM)29.65 "Hg (Apr 6, 3:56 AM)
Average44 °F65%30.05 "Hg
* Reported Apr 2 11:53 PM — Apr 17 11:53 PM, Moscow, Weather by CustomWeather, © 2015

Note: Actual official high and low records may vary slightly from our data, if they occured in-between our weather recording intervals... More about our weather records

Advertising

Moscow weather history for previous 24 hours

 ConditionsComfort  
Time TempWeatherWind HumidityBarometerVisibility
11:53 PM
Fri, Apr 17
44 °FClear.No wind73%30.15 "Hg10 mi
10:53 PM46 °FClear.No wind68%30.14 "Hg10 mi
9:53 PM47 °FClear.No wind69%30.13 "Hg10 mi
8:53 PM50 °FClear.No wind61%30.13 "Hg10 mi
7:53 PM57 °FSunny.6 mph46%30.11 "Hg10 mi
6:53 PM61 °FSunny.8 mph39%30.11 "Hg10 mi
5:53 PM64 °FSunny.9 mph37%30.11 "Hg10 mi
4:53 PM65 °FSunny.9 mph31%30.14 "Hg10 mi
3:53 PM66 °FSunny.9 mph36%30.15 "Hg10 mi
2:53 PM65 °FSunny.9 mph33%30.16 "Hg10 mi
1:53 PM64 °FSunny.7 mph37%30.17 "Hg10 mi
12:53 PM64 °FSunny.6 mph37%30.18 "Hg10 mi
11:53 AM61 °FSunny.3 mph41%30.20 "Hg10 mi
10:53 AM59 °FSunny.3 mph44%30.21 "Hg10 mi
9:53 AM56 °FSunny.6 mph51%30.22 "Hg10 mi
8:53 AM51 °FSunny.10 mph56%30.23 "Hg10 mi
7:53 AM48 °FSunny.9 mph66%30.23 "Hg10 mi
6:53 AM41 °FClear.3 mph74%30.24 "Hg10 mi
5:53 AM39 °FClear.6 mph73%30.24 "Hg10 mi
4:53 AM33 °FClear.No wind82%30.26 "Hg10 mi
3:53 AM34 °FClear.No wind79%30.26 "Hg10 mi
2:53 AM38 °FClear.No wind76%30.26 "Hg10 mi
1:53 AM37 °FClear.No wind76%30.27 "Hg10 mi
Weather by CustomWeather, © 2015

See weather overviewHow to use our weather pages